Theta_e
342 341 340 340 338 337 338 338 332 337 340 342 345 347 351 354 353 352 351 351 352 352 351 352 353 350 350 351 348 349 350 349 349 348 350 350 349 348 349 347 349 349 348
343 341 340 337 339 339 341 336 345 341 340 344 347 352 351 354 357 355 353 355 353 354 353 352 351 351 349 352 351 351 350 348 346 349 351 349 350 350 351 350 351 350 351
344 344 343 344 344 343 337 337 340 341 348 353 354 357 358 359 359 358 355 355 354 353 353 352 348 349 349 351 351 352 351 348 346 344 347 349 350 350 350 349 352 352 351
346 346 347 347 347 346 346 342 345 350 352 354 355 354 354 357 357 357 357 352 351 351 349 348 351 349 345 347 348 342 345 348 347 346 348 348 349 350 350 350 350 352 351
347 347 348 346 346 347 350 352 353 353 354 352 352 351 353 354 355 357 357 354 349 347 349 350 348 343 338 341 343 342 345 348 351 347 348 349 348 348 349 349 350 349 350
348 348 352 353 353 353 352 353 351 350 351 350 350 350 349 350 352 354 354 353 353 352 351 350 347 343 335 338 339 341 342 345 347 349 348 349 350 351 350 350 349 349 348
352 352 351 350 349 347 346 347 347 344 344 343 343 343 343 344 345 350 353 353 352 351 351 349 347 344 344 345 344 341 342 343 343 348 349 350 351 349 350 350 350 349 347
348 346 344 345 343 340 339 337 335 336 336 335 334 333 333 333 336 338 345 351 350 349 348 348 348 346 345 345 345 346 347 347 347 346 346 347 348 350 350 348 348 348 348
340 337 336 336 333 333 333 333 332 334 331 328 327 326 327 325 326 331 338 341 343 343 344 345 346 344 344 345 345 347 347 347 345 343 344 345 345 346 346 347 346 346 347
334 332 331 330 331 333 334 333 332 331 330 330 329 328 324 325 323 322 324 329 333 337 339 337 340 340 340 340 339 339 342 343 340 336 339 341 342 345 342 342 345 345 344
333 333 331 331 332 333 328 326 326 328 328 328 327 326 325 324 324 323 324 326 327 327 327 328 328 324 324 325 325 325 326 327 329 331 333 334 335 337 338 340 342 342 342
333 333 333 333 332 329 325 324 325 326 327 328 328 327 327 326 324 324 323 324 326 328 329 329 327 327 329 330 330 330 330 331 332 333 333 333 334 334 334 335 337 337 339
333 334 334 331 328 326 327 327 327 328 327 327 327 327 327 327 326 325 326 327 326 328 327 326 326 326 327 328 327 327 329 330 331 331 332 332 331 331 331 331 332 333 335
334 334 333 331 328 328 327 327 327 327 327 326 326 326 326 325 322 322 325 326 327 327 327 327 326 325 325 325 326 325 322 322 323 324 325 326 326 326 325 327 327 327 328
333 331 330 330 329 327 326 326 327 326 325 323 323 321 319 318 316 315 316 318 320 320 324 324 323 323 322 321 321 319 317 315 315 315 317 319 319 319 320 319 320 321 323
331 330 328 329 327 327 326 324 325 320 319 315 313 314 312 311 310 309 309 309 309 313 313 313 314 314 314 313 312 311 310 310 309 309 309 310 311 313 314 315 316 317 318
329 327 326 327 327 327 327 326 322 322 316 313 312 312 312 311 311 311 311 310 311 313 313 313 313 313 313 313 312 312 310 310 309 308 308 308 309 310 311 312 314 315 315
327 325 325 325 327 327 326 324 321 320 319 317 314 313 313 312 312 312 311 315 315 314 314 314 314 314 314 314 313 313 311 310 308 308 307 307 307 308 310 310 311 312 314
325 326 326 326 326 326 325 323 320 319 319 318 318 317 317 315 314 313 312 315 315 314 315 315 315 315 315 315 315 314 314 311 308 308 307 306 306 307 307 309 310 310 310
326 325 326 326 325 326 326 326 322 318 318 317 316 316 316 316 317 317 317 317 316 315 315 315 314 314 315 315 315 315 314 312 309 307 306 306 305 306 307 308 309 310 311
325 324 324 323 323 323 324 325 319 317 317 316 316 317 315 316 315 314 314 314 314 315 315 315 315 314 315 315 315 314 313 311 308 306 305 304 304 305 305 305 308 310 311
325 324 321 320 321 322 320 318 317 316 315 314 314 315 313 314 313 312 313 313 313 314 314 315 314 314 314 313 314 313 313 309 307 305 304 303 303 304 304 304 305 307 308
324 324 321 317 317 316 316 316 316 316 315 314 313 313 312 311 311 311 311 310 310 310 310 310 311 312 313 314 313 313 310 307 304 302 302 302 302 303 302 303 304 306 308
322 321 319 317 317 316 316 316 316 316 315 314 313 312 311 311 311 310 310 309 309 309 308 307 308 309 310 311 313 309 306 304 301 301 301 301 301 301 302 303 304 306 307
320 318 318 318 317 317 317 316 317 317 316 315 313 312 312 311 311 311 310 309 309 308 307 307 308 309 309 310 308 306 304 300 300 300 299 300 300 300 301 303 304 305 306
319 318 317 317 316 316 316 317 317 317 316 315 314 313 312 312 311 311 310 309 308 307 306 306 308 308 307 306 304 302 301 301 301 301 300 299 299 300 302 303 303 304 305
Wind_Speed
26 27 26 25 29 29 27 25 22 16 14 16 15 15 13 13 13 12 13 13 12 12 11 13 13 14 15 14 15 14 14 15 15 17 12 9 9 9 8 11 14 15 16
23 23 25 27 22 23 23 20 14 13 15 15 15 13 13 14 12 14 14 11 13 13 15 16 18 17 15 13 13 14 15 17 18 16 16 15 13 11 10 12 13 13 14
17 17 18 18 18 19 19 17 14 14 12 10 11 11 12 13 12 13 14 12 12 14 14 17 20 16 13 10 11 11 11 14 23 20 21 16 15 13 11 11 12 15 16
16 16 16 15 14 12 11 12 12 10 10 9 9 11 13 14 13 13 12 11 13 11 16 18 17 13 9 11 10 8 7 12 16 23 19 19 16 14 13 14 15 14 16
14 13 12 12 11 10 8 8 8 7 5 5 5 6 5 4 6 10 11 11 12 16 19 19 19 12 14 10 8 10 8 9 13 14 13 16 17 15 15 14 15 16 17
12 9 7 7 8 7 7 7 7 7 6 3 1 3 4 4 4 3 6 7 7 8 10 11 16 18 12 9 11 13 10 7 9 12 14 17 18 16 15 15 16 14 14
15 13 12 12 12 11 10 11 10 8 8 6 6 5 6 5 5 5 1 3 3 4 6 6 7 10 15 16 10 8 10 12 15 14 16 17 15 13 12 13 14 14 15
16 14 11 11 11 10 9 9 7 6 7 7 7 7 7 9 6 4 2 3 1 2 4 4 5 5 5 5 6 6 7 8 10 12 16 19 18 16 16 17 16 16 17
13 11 11 10 10 9 10 8 7 8 10 11 11 11 10 11 11 10 5 3 2 2 2 2 3 3 4 4 4 4 5 4 4 5 8 9 12 14 15 17 17 14 12
11 10 10 10 10 12 12 12 13 13 12 10 9 9 10 10 11 11 9 8 8 5 5 4 4 3 3 4 5 5 7 6 7 9 9 9 9 9 11 9 16 14 11
13 13 12 11 13 15 17 12 11 10 9 9 10 10 10 11 10 11 12 9 7 5 5 6 6 7 7 6 6 5 7 10 12 12 11 10 9 7 7 7 9 11 14
16 15 13 11 14 17 15 13 12 12 12 11 10 10 10 11 12 11 10 11 10 9 11 11 11 12 12 10 10 10 8 6 5 5 6 7 9 10 11 12 13 13 16
17 15 13 14 15 15 16 15 13 11 11 10 9 9 9 10 10 13 12 10 10 11 11 12 12 12 13 13 14 13 14 13 10 9 9 9 10 11 12 11 12 12 14
18 15 14 15 15 13 12 11 12 11 10 8 7 8 8 10 11 11 9 8 8 7 7 7 9 11 13 11 12 14 14 13 12 11 11 11 13 13 13 14 16 16 18
17 16 15 15 15 14 12 11 9 9 9 9 9 8 9 10 12 14 13 10 7 6 7 6 8 9 11 12 12 13 13 13 13 12 12 12 13 14 14 15 15 16 15
18 17 15 16 16 15 14 12 12 15 15 16 16 14 15 14 14 15 15 15 14 13 11 11 11 11 12 12 12 12 13 14 14 14 14 14 14 14 15 15 14 15 17
18 16 15 15 16 16 15 17 18 15 15 16 15 14 14 13 13 12 12 13 13 11 11 10 9 8 8 7 7 8 9 9 10 12 13 13 15 16 16 15 15 14 16
16 18 15 16 17 15 15 16 16 14 12 9 9 8 7 7 7 7 8 9 8 9 8 8 7 7 6 6 6 7 8 10 10 11 12 13 14 15 16 16 16 17 18
19 16 17 18 18 17 15 14 12 11 9 8 5 3 1 1 1 2 3 4 6 6 6 6 6 6 7 7 8 8 9 11 12 12 12 13 13 13 15 16 17 18 20
18 21 19 18 17 15 13 12 11 9 7 5 3 2 1 2 2 2 3 4 6 7 6 7 7 7 8 8 9 9 10 11 11 12 13 14 15 15 15 16 17 19 19
22 20 18 17 16 13 13 13 11 8 5 3 2 1 3 3 3 4 7 8 9 9 10 10 9 10 10 10 10 11 10 12 12 12 14 16 16 17 17 18 18 18 18
24 21 18 16 14 14 14 12 10 8 6 3 3 2 2 2 5 7 7 8 9 10 10 10 11 12 13 12 12 12 11 11 12 14 15 16 17 18 18 19 20 19 20
23 21 19 17 15 15 13 11 9 7 5 3 3 3 3 4 5 5 7 8 9 11 13 14 15 15 13 11 10 9 9 11 12 13 16 18 19 19 20 20 21 20 19
22 22 21 18 17 15 12 11 8 7 5 3 2 2 2 3 4 5 7 8 10 13 16 16 14 14 13 11 8 7 8 9 13 14 15 18 19 20 21 21 21 21 20
21 21 19 16 15 14 12 10 9 8 7 5 2 1 0 2 3 5 7 9 12 16 16 14 13 12 10 6 6 7 10 15 16 18 19 18 20 21 20 21 21 23 22
20 19 18 16 14 13 11 9 9 10 9 7 6 4 4 4 5 6 8 10 12 14 13 11 9 7 5 5 7 12 15 16 18 20 22 19 19 20 20 22 23 23 23
Wind_Direction
231 234 239 242 248 253 258 259 259 265 291 296 290 280 269 258 275 260 258 254 246 242 229 229 239 241 234 230 232 229 229 228 243 261 258 270 269 268 249 250 239 232 237
227 232 236 243 245 247 247 244 247 271 291 295 294 283 286 279 259 254 264 248 253 239 232 224 232 232 232 227 219 221 228 227 227 255 260 256 262 255 254 244 242 241 234
219 226 232 234 232 235 241 247 260 277 287 286 283 278 269 266 264 263 271 270 259 249 245 236 238 227 224 224 221 226 231 232 231 235 261 257 257 258 260 252 242 243 243
212 216 221 228 233 234 247 262 273 273 272 282 280 282 283 272 261 258 250 259 259 255 263 262 241 225 239 233 208 232 247 238 230 225 242 252 258 259 252 255 254 251 248
190 203 214 224 235 240 238 248 254 249 252 262 292 307 321 291 265 254 247 242 234 247 252 261 241 246 279 238 230 258 268 249 228 216 225 252 255 248 243 249 250 256 257
166 172 163 166 157 152 141 130 128 125 127 131 56 26 32 20 347 257 218 227 239 270 267 264 245 262 281 295 273 280 245 244 248 230 230 241 248 247 255 248 253 253 260
136 131 134 132 127 123 124 116 112 110 110 95 78 66 54 26 9 33 153 238 239 252 263 278 284 268 290 291 276 250 255 252 252 247 249 246 256 257 261 264 253 248 259
126 130 137 133 125 126 121 107 111 108 96 90 84 73 62 42 13 350 354 29 20 322 301 299 292 298 319 307 292 283 266 264 270 261 252 260 263 263 263 264 261 264 269
126 136 136 138 134 127 104 100 102 103 103 98 89 78 64 51 41 41 39 40 43 2 8 293 274 273 272 288 298 304 306 299 306 286 272 279 275 270 265 266 257 247 255
136 140 143 142 132 116 105 105 103 104 105 98 86 70 60 51 42 38 41 54 57 56 56 33 27 21 347 330 332 333 316 319 325 314 315 313 307 304 302 272 260 253 248
144 142 139 137 128 118 116 117 112 106 106 94 87 75 61 52 48 46 46 47 47 42 38 24 9 359 350 339 327 307 295 298 305 310 315 318 318 319 315 302 294 276 277
147 143 136 125 123 123 122 115 111 113 107 99 89 78 62 57 52 48 43 44 54 57 52 51 54 62 58 53 52 39 34 29 1 349 342 343 343 337 325 317 307 293 279
142 139 132 129 126 127 124 121 117 113 107 98 86 75 60 50 46 49 50 60 66 65 66 71 69 64 55 46 45 49 41 33 26 18 2 359 348 337 332 330 330 322 308
144 145 140 143 138 130 127 122 117 110 104 94 83 70 63 56 47 45 50 60 69 62 55 45 44 46 48 46 37 30 35 29 28 21 3 353 350 348 343 338 331 329 322
147 145 144 151 146 130 122 114 111 103 101 95 85 78 74 66 55 56 56 56 56 48 50 49 43 38 36 33 31 28 27 25 19 8 359 351 346 343 338 337 334 329 323
148 149 152 147 145 140 132 112 111 113 106 100 97 96 89 87 77 72 67 65 64 76 71 64 59 57 55 48 39 29 26 19 11 5 360 353 346 341 338 336 334 330 324
151 153 156 150 149 148 144 137 126 112 111 103 100 95 92 87 80 73 68 67 64 65 67 65 66 63 61 54 42 31 22 14 7 360 354 350 342 337 336 332 332 330 326
151 153 152 153 154 151 150 147 141 137 129 125 122 116 102 89 77 65 52 50 45 45 47 47 42 35 26 14 8 5 4 360 358 354 348 344 343 337 329 327 325 321 319
146 148 145 146 148 149 147 145 142 135 133 138 151 160 190 262 314 337 358 19 18 20 17 11 3 357 350 340 334 336 339 343 342 342 340 337 335 332 330 326 321 319 313
146 150 145 148 153 156 157 159 151 144 144 152 167 176 234 326 299 304 328 335 322 318 321 325 329 331 330 321 317 311 316 327 332 336 334 332 331 327 323 320 321 315 313
148 149 150 147 149 153 152 151 149 145 136 110 54 237 266 290 320 343 343 341 337 328 304 297 303 304 308 309 306 302 304 315 324 332 332 327 325 322 320 315 309 309 303
151 151 147 142 141 141 141 143 146 143 131 91 68 52 20 335 338 345 353 359 356 347 331 307 300 301 302 300 297 298 294 310 322 328 324 319 317 317 317 313 309 304 300
151 150 147 143 141 145 146 153 158 155 143 94 53 46 18 358 355 360 2 360 351 344 337 326 311 302 300 296 292 285 292 310 316 317 314 312 313 315 316 311 308 302 301
151 150 151 152 153 158 163 170 175 173 165 145 93 76 36 15 15 10 355 344 339 335 333 324 312 301 301 302 291 291 302 308 314 312 309 307 310 315 312 309 307 304 301
155 153 157 161 166 171 175 178 183 187 195 195 184 181 347 335 341 340 335 332 334 334 330 328 324 320 314 295 293 303 302 316 317 316 317 310 308 308 306 305 307 308 304
163 162 164 165 172 180 186 195 205 209 211 215 221 240 258 275 295 299 315 323 324 325 326 335 342 357 346 323 311 316 318 317 316 317 317 314 310 309 308 307 307 306 304